sat.trackr.live / text

‹ back to catalog

STARLINK-35359

NORAD 65670 · 2025-211U

PAYLOAD ACTIVE UNKNOWN

§ Identity

Operator
Country
US
Launch date
2025-09-19
Launch site
AFWTR
Launch vehicle
Mass (kg)
RCS (m²)

Purposes: comms

External: N2YO · Heavens-Above · Gunter

§ Orbital elements

Epoch: 2026-09-20T20:55:33.152736Z

Period
93.91 min
Inclination
97.2881°
Eccentricity
0.0000378
Mean motion
15.33455797 rev/d
Perigee alt
465.3 km
Apogee alt
465.8 km
Semi-major
6,843.6 km
B*
5.9170e-4
RAAN
304.1492°
Arg perigee
88.6184°
Mean anomaly
271.5102°
Rev number
5,658

§ Raw data

STARLINK-353591 65670U 25211U   26263.87191149  .00019082  00000+0  59170-3 0  99982 65670  97.2881 304.1492 0000378  88.6184 271.5102 15.33455797 56588

JSON: /api/v1/satellites/65670 · /tle

For live sub-satellite position, see the globe view (requires WebGL).

§ Visibility from observer

Set your observer location to see the next 7 days of passes ≥ 10°. The values pass through the URL so the page stays shareable.

No JS? Fill the form by hand. The geolocation button needs JavaScript.